This is the latest recevied weather packets stored in our database for station/object EA2MKR. If no packets are shown the sender has not sent any weather packets the latest 10 day(s).
| Time | Temp. | Humidity | Pressure | Rain* | Wind** | Luminosity | Snow |
|---|---|---|---|---|---|---|---|
| 1777978322 | 10° C | 88% | 950.3 hPa | 1.02 mm | - | - | - |
| 1777978024 | 10° C | 87% | 950.3 hPa | 1.52 mm | - | - | - |
| 1777977723 | 10° C | 86% | 950.4 hPa | 2.03 mm | - | - | - |
| 1777977493 | 10.56° C | 85% | 950.3 hPa | 2.03 mm | - | - | - |
| 1777977122 | 10.56° C | 85% | 950.4 hPa | 2.03 mm | - | - | - |
| 1777976823 | 10.56° C | 85% | 950.3 hPa | 2.03 mm | - | - | - |
| 1777976522 | 10.56° C | 83% | 950.2 hPa | 2.03 mm | - | - | - |
| 1777976223 | 10.56° C | 85% | 950.2 hPa | 2.03 mm | - | - | - |
| 1777975921 | 11.11° C | 88% | 950.2 hPa | 2.03 mm | - | - | - |
| 1777975623 | 10.56° C | 89% | 950.2 hPa | 2.03 mm | - | - | - |
| 1777975323 | 10.56° C | 88% | 950.2 hPa | 2.03 mm | - | - | - |
| 1777975024 | 10.56° C | 88% | 950.2 hPa | 1.78 mm | - | - | - |
| 1777974791 | 11.11° C | 87% | 950.2 hPa | 2.29 mm | - | - | - |
| 1777974422 | 11.11° C | 86% | 950.2 hPa | 2.03 mm | - | - | - |
| 1777974122 | 11.67° C | 83% | 950.1 hPa | 1.52 mm | - | - | - |
| 1777973822 | 11.67° C | 86% | 950.1 hPa | 1.78 mm | - | - | - |
| 1777973522 | 11.11° C | 87% | 950.1 hPa | 1.78 mm | - | - | - |
| 1777973291 | 11.11° C | 88% | 950.1 hPa | 1.78 mm | - | - | - |
| 1777972922 | 10.56° C | 93% | 950.1 hPa | 1.78 mm | - | - | - |
| 1777972622 | 10° C | 93% | 950.2 hPa | 1.78 mm | - | - | - |
| 1777972322 | 9.44° C | 92% | 950.1 hPa | 1.78 mm | - | - | - |
| 1777972022 | 9.44° C | 92% | 950.1 hPa | 1.78 mm | - | - | - |
| 1777971723 | 9.44° C | 92% | 950.1 hPa | 1.52 mm | - | - | - |
| 1777971422 | 9.44° C | 92% | 950.1 hPa | 1.27 mm | - | - | - |
| 1777971122 | 9.44° C | 91% | 950.1 hPa | 0.76 mm | - | - | - |
* Rain latest hour (hover to see other rain measurements)
** Current wind speed in m/s (hover to see current wind gust speed)